Location: Lanoux
(43.1180°N, 1.4255°E)
Time: 03:11:02
(UTC+00:00)

Meteor 2-10 - Pass Details

Date: 18 March 2026
Orbit: 736 x 866 km, 81.2° (Epoch: 13 April)

Event Time Altitude Azimuth Distance (km) Brightness Sun altitude
Rises 04:18:08 0° 2° (N) 3,177 7.5 -19.4°
Reaches altitude 10° 04:20:58 10° 18° (NNE) 2,252 6.9 -18.9°
Maximum altitude 04:24:51 22° 69° (ENE) 1,596 6.6 -18.2°
Drops below altitude 10° 04:28:44 10° 119° (ESE) 2,269 7.1 -17.6°
Sets 04:31:36 0° 134° (SE) 3,206 7.6 -17.1°
